KUIPER-00617

导读

KUIPER-00617(NORAD编号69776)是美国亚马逊主导的“柯伊伯计划”(Project Kuiper)低轨宽带通信星座组网卫星之一,由Kuiper Systems LLC运营。该卫星于2026年6月后期完成发射,部署于近地轨道,搭载相控阵通信天线与星间激光链路设备,入轨后通过电推进爬升至约630公里的工作轨道,主要承担全球宽带互联网覆盖任务,支撑偏远地区网络接入、机载通信等场景,是亚马逊与星链竞争全球卫星宽带市场、推进3236颗规模星座组网的在役节点。

Basic Information
目录编号:
69776
目录名称:
KUIPER-00617
国际标识:
2026-151P
轨道中心:
EARTH
卫星名称:
KUIPER-00617
卫星全名:
KUIPER-00617
卫星状态:
在轨 (已飞行12 天)
发射日期:
2026-07-02 UTC
国别 :
美国 (US)
星等 :
--
Orbit Information
数据来源 国际轨道数据 AOE轨道数据
星历时间 2026-07-13T21:23:50+0800
14小时前
查看轨道信息
2026-07-12T02:00:00+0800
2天前
查看轨道信息
半长轴 6830.884km 6830.977km
偏心率 0.0004109 0.0003893
轨道倾角 51.879° 51.880°
近地点辐角 129.060° 121.518°
升交点赤经 188.261° 197.010°
平近点角 231.075° 302.217°
近地点 449.94km 450.18km
远地点 455.554km 455.5km
周期 93.643分钟 93.645分钟
每日圈数 15.377561 15.377248
Detailed Information
使用方式:
暂无
2D Orbit Map
3D Orbit Map
Orbit Altitude Analysis Chart
Orbit Inclination Analysis Chart
Orbit Comprehensive Analysis Chart
View Comprehensive Chart